Change the Weather History Date:

Friday, June 21, 2013

  Actual Average Record
Temperature  
Mean Temperature 51 °F 56 °F  
Max Temperature 70 °F 74 °F 85 °F (1988)
Min Temperature 32 °F 38 °F 29 °F (1944)
Degree Days  
Heating Degree Days 14 9  
Month to date heating degree days 144 240  
Since 1 June heating degree days 144 240  
Since 1 July heating degree days 7007 7662  
Cooling Degree Days 0 0  
Month to date cooling degree days 5 0  
Year to date cooling degree days 5 0  
Since 1 June cooling degree days 5 0  
Moisture  
Dew Point 29 °F    
Average Humidity 48    
Maximum Humidity 78    
Minimum Humidity 18    
Precipitation  
Precipitation 0.00 in - 0.04 in (1988)
Month to date precipitation 0.07  
Year to date precipitation 4.82  
Sea Level Pressure  
Sea Level Pressure 30.02 in    
Wind  
Wind Speed 2 mph (South)    
Max Wind Speed 13 mph    
Max Gust Speed 17 mph    
Visibility 10 miles    
Events      
T = Trace of Precipitation, MM = Missing Value Source: NWS Daily Summary

Daily Weather History Graph

Daily Weather History Graph

Search for Another Location

Airport or City:

Trip Planner

Search our weather history database for the weather conditions in past years. The results will help you decide how hot, cold, wet, or windy it might be!

Date:

Astronomy

Jun. 21, 2013 Rise Set
Actual Time 5:34 AM PDT 8:28 PM PDT
Civil Twilight 5:02 AM PDT 9:00 PM PDT
Nautical Twilight 4:22 AM PDT 9:41 PM PDT
Astronomical Twilight 3:35 AM PDT 10:27 PM PDT
Moon 6:45 PM PDT (6/21) 3:54 AM PDT (6/21)
Length of Visible Light 15h 58m
Length of Day
14h 53m
Waxing Gibbous, 96% of the Moon is Illuminated
Jun 21
Waxing Gibbous
Jun 23
Full
Jun 29
Last Quarter
Jul 8
New
Jul 15
First Quarter

Hourly Weather History & Observations

Time (PDT) Temp. Windchill Dew Point Humidity Pressure Visibility Wind Dir Wind Speed Gust Speed Precip Events Conditions
12:53 AM 39.0 °F - 30.0 °F 70% 30.03 in 10.0 mi Calm Calm - N/A   Clear
1:53 AM 37.0 °F - 28.0 °F 70% 30.03 in 10.0 mi Calm Calm - N/A   Clear
2:53 AM 36.0 °F 32.1 °F 28.0 °F 73% 30.03 in 10.0 mi South 4.6 mph - N/A   Clear
3:53 AM 34.0 °F - 25.0 °F 70% 30.02 in 10.0 mi Calm Calm - N/A   Clear
4:53 AM 32.0 °F 28.7 °F 26.1 °F 79% 30.02 in 10.0 mi South 3.5 mph - N/A   Clear
5:53 AM 32.0 °F 27.5 °F 25.0 °F 75% 30.04 in 10.0 mi South 4.6 mph - N/A   Clear
6:53 AM 36.0 °F 33.3 °F 27.0 °F 70% 30.05 in 10.0 mi South 3.5 mph - N/A   Clear
7:53 AM 46.0 °F - 30.9 °F 56% 30.03 in 10.0 mi Calm Calm - N/A   Clear
8:53 AM 54.0 °F - 30.9 °F 41% 30.00 in 10.0 mi Calm Calm - N/A   Clear
9:53 AM 57.0 °F - 30.0 °F 36% 30.00 in 10.0 mi Variable 5.8 mph - N/A   Clear
10:53 AM 60.1 °F - 33.1 °F 36% 30.00 in 10.0 mi NNE 9.2 mph - N/A   Clear
11:53 AM 63.0 °F - 34.0 °F 34% 29.99 in 10.0 mi NNE 8.1 mph - N/A   Clear
12:53 PM 64.9 °F - 33.1 °F 31% 30.00 in 10.0 mi Variable 3.5 mph - N/A   Clear
1:53 PM 68.0 °F - 27.0 °F 21% 29.99 in 10.0 mi NNE 11.5 mph 16.1 mph N/A   Clear
2:53 PM 69.1 °F - 24.1 °F 18% 29.99 in 10.0 mi Variable 3.5 mph - N/A   Clear
3:53 PM 66.9 °F - 25.0 °F 21% 30.01 in 10.0 mi Variable 4.6 mph - N/A   Clear
4:53 PM 68.0 °F - 28.0 °F 22% 30.01 in 10.0 mi Variable 3.5 mph - N/A   Clear
5:53 PM 66.9 °F - 25.0 °F 21% 30.00 in 10.0 mi Calm Calm - N/A   Clear
6:53 PM 64.0 °F - 26.1 °F 24% 30.01 in 10.0 mi SSW 5.8 mph - N/A   Clear
7:53 PM 57.9 °F - 30.9 °F 36% 30.01 in 10.0 mi Calm Calm - N/A   Clear
8:53 PM 53.1 °F - 30.9 °F 43% 30.01 in 10.0 mi Calm Calm - N/A   Clear
9:53 PM 48.9 °F - 30.0 °F 48% 30.03 in 10.0 mi Calm Calm - N/A   Clear
10:53 PM 48.0 °F - 32.0 °F 54% 30.04 in 10.0 mi Calm Calm - N/A   Clear
11:53 PM 45.0 °F - 30.9 °F 58% 30.04 in 10.0 mi Calm Calm - N/A   Clear